Flag for Belarus Weather past 2 weeks in Minsk, Belarus

Now
73 °F

Passing clouds.


Feels Like: 77 °F
Forecast: 58 / 81 °F
Wind: 8 mph from Northeast

Location: Loshitsa / Minsk International 1

Current Time: Jul 23, 2014 at 12:06:24 PM

Latest Report: Jul 23, 2014 at 11:30 AM


Visibility: N/A

Pressure: 30.09 "Hg

Humidity: 50%

Dew point: 54 °F

Location of MinskLocation

Historic Weather in Minsk — Graph

°F

Minsk temperature yesterday

Maximum temperature yesterday: 77 °F (at 2:00 PM)
Minimum temperature yesterday: 59 °F (at 7:00 AM)
Average temperature yesterday: 72 °F

Past Weeks' High & Low Weather Summary

 TemperatureHumidityPressure
High82 °F (Jul 15, 5:00 PM)100% (Jul 11, 6:00 PM)30.15 "Hg (Jul 11, 6:00 PM)
Low55 °F (Jul 11, 6:00 PM)36% (Jul 18, 8:00 PM)29.71 "Hg (Jul 12, 7:30 PM)
Average71 °F66%29.97 "Hg
* Reported Jul 8 9:00 AM — Jul 23 9:00 AM, Minsk, Weather by CustomWeather, © 2014

Note: Actual official high and low records may vary slightly from our data, if they occured in-between our weather recording intervals... More about our weather records

Advertising

Minsk weather history for previous 24 hours

 ConditionsComfort  
Time TempWeatherWind HumidityBarometerVisibility
9:00 AM
Jul 23
68 °FSunny.6 mph64%30.09 "Hg10 mi
8:30 AM64 °FSunny.6 mph73%30.09 "Hg10 mi
8:00 AM64 °FSunny.6 mph73%30.09 "Hg10 mi
7:30 AM63 °FSunny.6 mph73%30.09 "Hg10 mi
7:00 AM63 °FSunny.6 mph73%30.09 "Hg10 mi
8:00 PM
Jul 22
73 °FPartly sunny.8 mph50%30.01 "HgN/A
7:30 PM75 °FPartly sunny.6 mph50%30.01 "HgN/A
7:00 PM75 °FPartly sunny.3 mph50%30.01 "HgN/A
6:30 PM73 °FPartly sunny.6 mph53%30.01 "HgN/A
6:00 PM73 °FPartly sunny.6 mph53%30.01 "HgN/A
5:30 PM75 °FPartly sunny.8 mph50%30.01 "HgN/A
5:00 PM75 °FThundershowers. Partly sunny.10 mph50%30.01 "HgN/A
4:54 PM77 °FThunderstorms. Partly sunny.10 mph39%30.01 "HgN/A
4:30 PM77 °FPartly sunny.10 mph39%30.01 "HgN/A
4:00 PM77 °FPartly sunny.10 mph39%30.01 "HgN/A
3:30 PM77 °FPartly sunny.8 mph44%30.01 "HgN/A
3:00 PM77 °FPartly sunny.8 mph44%30.01 "HgN/A
2:30 PM77 °FPartly sunny.6 mph44%30.01 "HgN/A
2:00 PM77 °FPartly sunny.6 mph44%30.01 "HgN/A
1:30 PM75 °FPartly sunny.8 mph50%30.01 "HgN/A
1:00 PM75 °FPartly sunny.8 mph50%30.01 "HgN/A
12:30 PM73 °FPartly sunny.10 mph53%30.01 "HgN/A
12:00 PM73 °FScattered clouds.10 mph53%30.01 "HgN/A
Weather by CustomWeather, © 2014

See weather overviewHow to use our weather pages